Weather reports worldwide

Advertisment
Coria/Tabacoa, Spain (8251): temperature & dewpoint: 03.04.2020 12:00:00 - 09.04.2020 12:00:00 (CEST)Coria/Tabacoa, Spain (8251): wind speed & gusts: 03.04.2020 12:00:00 - 09.04.2020 12:00:00 (CEST)Coria/Tabacoa, Spain (8251): wind direction: 03.04.2020 12:00:00 - 09.04.2020 12:00:00 (CEST)Coria/Tabacoa, Spain (8251): reduced air pressure: 03.04.2020 12:00:00 - 09.04.2020 12:00:00 (CEST)Coria/Tabacoa, Spain (8251): visibility: 03.04.2020 12:00:00 - 09.04.2020 12:00:00 (CEST)Coria/Tabacoa, Spain (8251): sunshine duration: 03.04.2020 12:00:00 - 09.04.2020 12:00:00 (CEST)Coria/Tabacoa, Spain (8251): precipitation: 03.04.2020 12:00:00 - 09.04.2020 12:00:00 (CEST)
Date & Time tt [°C] td [°C] ff [km/h] ff [kn] fx [km/h] fx [kn] dd ppp [hPa] vv [km] sd [min] rr [mm]
09.04.2020 12:00:00 13,7 11,9 - - - - - 1019,7 18 0 0,2
09.04.2020 11:00:00 14,8 13,4 17 9 29 16 E 1019,3 13 0 0,4
09.04.2020 10:00:00 15,8 15,2 4 2 8 4 E 1018,6 6 0 0,2
09.04.2020 09:00:00 15,5 14,7 4 2 7 4 E 1018,3 9 0 0,0
09.04.2020 08:00:00 15,5 14,5 4 2 6 4 W 1017,6 20 0 -
09.04.2020 07:00:00 15,6 14,4 4 2 7 4 WNW 1017,3 20 0 0,0
09.04.2020 06:00:00 15,8 14,5 5 3 9 5 NNW 1017,3 20 0 0,0
09.04.2020 05:00:00 15,8 14,7 5 3 8 4 NW 1017,6 20 0 0,0
09.04.2020 04:00:00 15,8 14,5 5 3 11 6 W 1018,0 20 0 0,0
09.04.2020 03:00:00 16,4 14,4 6 4 8 5 NW 1018,2 20 0 0,0
09.04.2020 02:00:00 16,7 14,9 4 2 10 5 WNW 1018,7 20 0 -
09.04.2020 01:00:00 17,0 14,6 7 4 13 7 NW 1018,8 20 0 0,0
09.04.2020 00:00:00 17,7 14,0 6 3 10 5 NW 1019,1 20 0 0,0
08.04.2020 23:00:00 18,0 14,3 6 3 12 6 WNW 1019,3 20 0 0,0
08.04.2020 22:00:00 18,9 13,6 5 3 14 8 WNW 1018,7 20 0 0,0
08.04.2020 21:00:00 20,0 14,3 4 2 8 5 W 1018,2 20 0 0,0
08.04.2020 20:00:00 21,5 14,1 3 1 7 4 SE 1018,3 20 21 -
08.04.2020 19:00:00 22,0 12,5 5 3 10 5 E 1018,1 20 49 0,0
08.04.2020 18:00:00 23,2 12,5 7 4 15 8 W 1018,1 20 60 0,0
08.04.2020 17:00:00 22,8 13,9 4 2 16 9 W 1018,6 20 60 0,0
08.04.2020 16:00:00 21,5 14,4 4 2 16 9 ESE 1019,4 20 18 0,0
08.04.2020 15:00:00 21,0 13,7 11 6 22 12 ESE 1020,1 20 32 0,0
08.04.2020 14:00:00 20,6 14,7 13 7 30 16 E 1020,6 20 53 -
08.04.2020 13:00:00 19,0 14,9 15 8 26 14 E 1021,6 20 59 0,0
08.04.2020 12:00:00 17,2 14,3 13 7 21 11 E 1022,3 20 60 0,0
08.04.2020 11:00:00 15,8 14,1 11 6 17 9 ESE 1022,6 20 53 0,0
08.04.2020 10:00:00 13,3 13,2 9 5 15 8 E 1022,8 20 8 0,0
08.04.2020 09:00:00 11,3 11,1 0 0 3 2 N 1023,0 20 0 0,0
08.04.2020 08:00:00 9,7 9,4 1 1 8 4 NNE 1022,7 0,9 0 -
08.04.2020 07:00:00 11,1 11,0 7 4 12 7 E 1022,5 20 0 0,0
08.04.2020 06:00:00 11,7 11,4 10 5 15 8 E 1022,6 0,1 0 0,0
08.04.2020 05:00:00 12,0 11,6 9 5 10 6 E 1022,8 11 0 0,0
08.04.2020 04:00:00 13,0 12,2 3 2 11 6 S 1023,0 7 0 0,0
08.04.2020 03:00:00 13,8 13,2 5 3 11 6 ENE 1023,2 20 0 0,0
08.04.2020 02:00:00 14,1 13,2 8 4 16 8 E 1023,4 20 0 -
08.04.2020 01:00:00 14,4 13,5 11 6 18 10 E 1023,2 20 0 0,0
08.04.2020 00:00:00 14,6 13,5 10 6 16 9 E 1023,1 20 0 0,0
07.04.2020 23:00:00 15,1 13,3 10 5 14 7 E 1022,9 20 0 0,0
07.04.2020 22:00:00 15,5 13,2 10 5 14 7 E 1022,3 20 0 0,0
07.04.2020 21:00:00 17,0 13,6 8 4 13 7 E 1021,3 20 30 0,0
07.04.2020 20:00:00 18,8 14,2 10 5 18 10 SE 1021,4 20 53 -
07.04.2020 19:00:00 19,9 14,9 10 6 20 11 SSE 1020,7 20 57 0,0
07.04.2020 18:00:00 19,9 15,8 10 5 24 13 SSE 1020,6 20 58 0,0
07.04.2020 17:00:00 20,1 16,6 14 8 32 17 S 1021,1 20 57 0,0
07.04.2020 16:00:00 19,6 15,3 15 8 27 15 S 1021,3 20 38 0,0
07.04.2020 15:00:00 17,8 15,8 2 1 10 5 ENE 1021,8 20 8 0,2
07.04.2020 14:00:00 16,2 15,7 8 4 22 12 S 1022,4 7 0 -
07.04.2020 13:00:00 15,4 15,3 14 8 24 13 ESE 1022,5 8 0 0,2
07.04.2020 12:00:00 14,5 14,3 16 9 28 15 E 1022,7 3,3 0 0,2
07.04.2020 11:00:00 14,1 13,9 16 9 27 15 E 1022,3 6 0 0,2
07.04.2020 10:00:00 13,5 13,4 15 8 24 13 E 1022,2 11 0 0,2
07.04.2020 09:00:00 13,2 12,8 17 9 26 14 E 1021,8 15 0 0,0
07.04.2020 08:00:00 13,5 13,2 14 8 21 11 E 1021,4 4,2 0 -
07.04.2020 07:00:00 13,6 13,3 9 5 21 12 E 1021,1 19 0 0,0
07.04.2020 06:00:00 13,6 13,3 13 7 20 11 E 1020,9 20 0 0,4
07.04.2020 05:00:00 13,4 13,1 12 6 23 12 E 1021,2 10 0 0,4
07.04.2020 04:00:00 13,2 12,8 14 7 25 13 E 1021,5 20 0 0,4
07.04.2020 03:00:00 13,3 13,0 15 8 26 14 E 1021,8 6 0 1,4
07.04.2020 02:00:00 13,4 13,0 11 6 20 11 E 1021,8 9 0 -
07.04.2020 01:00:00 13,4 12,6 9 5 18 10 E 1021,7 20 0 0,0
07.04.2020 00:00:00 13,1 12,1 8 4 15 8 ENE 1021,8 20 0 0,0
06.04.2020 23:00:00 13,4 12,6 9 5 14 7 E 1021,6 17 0 0,4
06.04.2020 22:00:00 14,2 13,0 5 3 8 5 E 1021,5 7 0 1,2
06.04.2020 21:00:00 14,8 13,1 2 1 13 7 SE 1020,7 20 0 0,2
06.04.2020 20:00:00 15,5 12,6 8 4 18 10 SSE 1020,4 10 0 -
06.04.2020 19:00:00 16,5 13,3 5 3 8 5 SE 1019,6 20 0 0,0
06.04.2020 18:00:00 16,9 13,1 3 1 8 5 WSW 1019,8 20 0 0,0
06.04.2020 17:00:00 16,8 12,5 4 2 9 5 W 1020,2 20 0 0,0
06.04.2020 16:00:00 17,2 12,5 2 1 12 7 SSE 1020,6 20 0 0,0
06.04.2020 15:00:00 16,6 11,8 4 2 16 9 E 1020,8 20 3 0,0
06.04.2020 14:00:00 16,2 12,5 5 3 14 7 SE 1020,9 20 2 -
06.04.2020 13:00:00 14,8 12,4 3 2 7 4 SW 1021,4 20 0 0,2
06.04.2020 12:00:00 14,2 12,4 3 2 7 4 SE 1021,3 20 0 0,0
06.04.2020 11:00:00 13,5 12,2 5 3 9 5 SSW 1020,7 20 0 0,0
06.04.2020 10:00:00 12,1 11,7 2 1 9 5 WSW 1020,3 20 0 0,0
06.04.2020 09:00:00 11,1 10,6 7 4 10 5 E 1019,4 17 0 0,0
06.04.2020 08:00:00 11,4 10,8 4 2 16 9 S 1018,7 15 0 -
06.04.2020 07:00:00 11,8 11,2 3 2 13 7 W 1018,0 20 0 0,0
06.04.2020 06:00:00 11,5 10,9 6 4 16 9 SW 1017,7 20 0 0,0
06.04.2020 05:00:00 12,0 11,2 6 4 12 6 SW 1017,4 20 0 0,0
06.04.2020 04:00:00 12,9 12,1 2 1 10 5 S 1016,9 20 0 0,0
06.04.2020 03:00:00 13,8 13,1 5 3 11 6 S 1016,4 20 0 0,0
06.04.2020 02:00:00 14,1 13,5 6 3 16 9 SSW 1016,6 20 0 -
06.04.2020 01:00:00 14,0 13,4 7 4 22 12 S 1016,3 20 0 0,0
06.04.2020 00:00:00 14,1 13,5 6 3 24 13 SSE 1015,9 20 0 0,0
05.04.2020 23:00:00 14,3 13,7 12 6 23 13 SSE 1015,3 20 0 0,0
05.04.2020 22:00:00 14,7 13,9 13 7 28 15 SE 1014,8 20 0 0,0
05.04.2020 21:00:00 14,7 13,9 10 6 26 14 ESE 1014,4 20 0 2,0
05.04.2020 20:00:00 15,2 14,0 8 4 21 12 S 1014,1 9 0 -
05.04.2020 19:00:00 15,9 14,2 8 5 14 8 ESE 1013,4 20 0 0,4
05.04.2020 18:00:00 14,9 13,5 9 5 20 11 E 1013,7 11 0 0,8
05.04.2020 17:00:00 14,2 13,1 15 8 29 16 E 1014,0 7 0 0,8
05.04.2020 16:00:00 14,7 13,6 15 8 26 14 E 1014,3 14 0 1,2
05.04.2020 15:00:00 14,8 12,4 3 2 - - WNW 1015,4 6 0 2,6
05.04.2020 14:00:00 16,1 10,2 - - - - - 1014,9 20 0 -
05.04.2020 13:00:00 15,4 9,7 17 9 - - SE 1015,3 20 0 0,0
05.04.2020 12:00:00 14,9 9,0 - - - - - 1015,6 20 0 0,0
05.04.2020 11:00:00 14,1 8,5 - - - - - 1015,7 20 0 0,0
05.04.2020 10:00:00 13,0 8,1 17 9 - - ESE 1015,9 20 0 0,0
05.04.2020 09:00:00 12,6 7,8 - - - - - 1015,7 20 0 0,0
05.04.2020 08:00:00 12,5 8,0 15 8 27 14 ESE 1015,1 20 0 -
05.04.2020 07:00:00 12,6 8,7 12 6 22 12 ESE 1014,8 20 0 0,0
05.04.2020 06:00:00 12,7 8,5 14 7 21 12 E 1014,2 20 0 0,0
05.04.2020 05:00:00 12,6 8,5 14 7 20 11 E 1014,5 20 0 0,0
05.04.2020 04:00:00 12,8 8,3 11 6 19 10 E 1014,7 20 0 0,0
05.04.2020 03:00:00 13,1 8,1 14 7 22 12 E 1014,7 20 0 0,0
05.04.2020 02:00:00 13,7 8,4 10 5 21 11 E 1014,6 20 0 -
05.04.2020 01:00:00 13,6 8,3 11 6 16 9 E 1014,7 20 0 0,0
05.04.2020 00:00:00 13,7 8,5 6 3 11 6 ESE 1014,4 20 0 0,0
04.04.2020 23:00:00 14,1 7,8 4 2 13 7 SSW 1014,5 20 0 0,0
04.04.2020 22:00:00 14,7 8,1 6 4 17 9 S 1013,8 20 0 0,0
04.04.2020 21:00:00 15,5 7,7 8 4 24 13 S 1013,0 20 0 0,0
04.04.2020 20:00:00 16,7 7,1 12 7 26 14 SSE 1012,5 20 0 -
04.04.2020 19:00:00 17,9 7,3 13 7 29 16 SSE 1011,8 20 25 0,0
04.04.2020 18:00:00 18,0 7,4 16 9 - - SSE 1011,9 20 14 0,0
04.04.2020 17:00:00 17,6 7,6 - - - - - 1012,1 20 17 0,0
04.04.2020 16:00:00 17,8 7,3 - - - - - 1012,2 20 20 0,0
04.04.2020 15:00:00 18,5 8,4 - - - - - 1012,2 20 16 0,0
04.04.2020 14:00:00 18,1 8,9 - - - - - 1012,5 20 51 -
04.04.2020 13:00:00 17,1 8,0 - - - - - 1013,3 20 60 0,0
04.04.2020 12:00:00 15,4 7,0 - - - - - 1013,8 20 60 0,0
04.04.2020 11:00:00 13,9 6,7 - - - - - 1013,8 20 60 0,0
04.04.2020 10:00:00 11,7 5,8 - - - - - 1014,3 20 37 0,0
04.04.2020 09:00:00 9,5 4,3 15 8 26 14 E 1014,4 20 8 0,0
04.04.2020 08:00:00 8,8 3,8 12 7 24 13 E 1014,3 20 0 -
04.04.2020 07:00:00 9,7 3,6 16 8 29 15 E 1013,7 20 0 0,0
04.04.2020 06:00:00 9,0 4,3 13 7 25 14 E 1013,9 20 0 0,0
04.04.2020 05:00:00 10,4 4,3 16 9 27 15 E 1013,8 20 0 0,0
04.04.2020 04:00:00 10,7 4,3 16 9 23 12 E 1014,1 20 0 0,0
04.04.2020 03:00:00 10,9 4,6 12 7 17 9 E 1014,7 20 0 0,0
04.04.2020 02:00:00 12,3 4,8 12 6 18 10 ENE 1014,7 20 0 -
04.04.2020 01:00:00 13,2 5,6 9 5 16 9 ENE 1014,5 20 0 0,0
04.04.2020 00:00:00 13,5 5,9 10 5 16 9 ENE 1014,8 20 0 0,0
03.04.2020 23:00:00 14,6 5,5 0 0 5 3 N 1014,8 20 0 0,0
03.04.2020 22:00:00 15,7 5,9 0 0 4 2 N 1014,1 20 0 0,0
03.04.2020 21:00:00 17,9 6,4 0 0 8 4 N 1013,5 20 35 0,0
03.04.2020 20:00:00 20,1 8,1 5 3 16 9 SSW 1013,2 20 60 -
03.04.2020 19:00:00 20,5 6,1 7 4 19 10 S 1013,1 20 60 0,0
03.04.2020 18:00:00 20,2 4,6 6 3 20 11 ENE 1013,2 20 60 0,0
03.04.2020 17:00:00 20,3 5,1 6 3 22 12 SE 1013,6 20 60 0,0
03.04.2020 16:00:00 19,7 5,8 10 6 26 14 SE 1014,3 20 60 0,0
03.04.2020 15:00:00 19,2 6,7 10 6 23 13 SSE 1015,2 20 60 0,0
03.04.2020 14:00:00 18,1 5,9 13 7 24 13 ESE 1016,0 20 60 -
03.04.2020 13:00:00 17,0 7,1 13 7 24 13 ESE 1016,6 20 60 0,0
03.04.2020 12:00:00 15,3 8,5 8 4 16 9 ESE 1017,2 20 60 0,0

tt = temperature
td = dewpoint
ff = wind speed
fx = gusts
dd = wind direction
ppp = reduced air pressure
vv = visibility
sd = sunshine duration
rr = precipitation

Next stations